This is the latest recevied weather packets stored in our database for station/object KB2FWP. If no packets are shown the sender has not sent any weather packets the latest 10 day(s).
| Time | Temp. | Humidity | Pressure | Rain* | Wind** | Luminosity | Snow |
|---|---|---|---|---|---|---|---|
| 1787502654 | 26.67° C | 80% | 1011.2 hPa | 0 mm | - | - | - |
| 1787501752 | 26.11° C | 80% | 1011.1 hPa | 0 mm | - | - | - |
| 1787500851 | 26.11° C | 80% | 1011.1 hPa | 0 mm | - | - | - |
| 1787499948 | 25.56° C | 83% | 1011.3 hPa | 0 mm | - | - | - |
| 1787499045 | 24.44° C | 84% | 1011.3 hPa | 0 mm | - | - | - |
| 1787498149 | 25° C | 84% | 1011.4 hPa | 0 mm | - | - | - |
| 1787497267 | 24.44° C | 84% | 1011.6 hPa | 0 mm | - | - | - |
| 1787496340 | 23.89° C | 88% | 1011.5 hPa | 0 mm | - | - | - |
| 1787495436 | 22.78° C | 90% | 1011.5 hPa | 0 mm | - | - | - |
| 1787494534 | 22.78° C | 92% | 1011.5 hPa | 0 mm | - | - | - |
| 1787493630 | 22.22° C | 94% | 1011.3 hPa | 0 mm | - | - | - |
| 1787492729 | 21.67° C | 95% | 1011.3 hPa | 0 mm | - | - | - |
| 1787491828 | 20.56° C | 95% | 1011.4 hPa | 0 mm | - | - | - |
| 1787490928 | 20.56° C | 96% | 1011.3 hPa | 0.76 mm | - | - | - |
| 1787490027 | 20° C | 96% | 1011 hPa | 1.78 mm | - | - | - |
| 1787489131 | 20° C | 96% | 1011 hPa | 14.22 mm | - | - | - |
| 1787488226 | 19.44° C | 95% | 1011 hPa | 28.7 mm | - | - | - |
| 1787487327 | 19.44° C | 95% | 1010.7 hPa | 28.19 mm | - | - | - |
| 1787486425 | 20° C | 95% | 1011 hPa | 27.18 mm | - | - | - |
| 1787485520 | 22.22° C | 95% | 1010.4 hPa | 13.72 mm | - | - | - |
| 1787484617 | 22.22° C | 95% | 1010.6 hPa | 0 mm | - | - | - |
| 1787483721 | 22.22° C | 95% | 1010.4 hPa | 0 mm | - | - | - |
| 1787482808 | 22.22° C | 94% | 1010.7 hPa | 0 mm | - | - | - |
| 1787481912 | 22.22° C | 95% | 1010.7 hPa | 0 mm | - | - | - |
| 1787481005 | 21.67° C | 95% | 1010.4 hPa | 0 mm | - | - | - |
* Rain latest hour (hover to see other rain measurements)
** Current wind speed in m/s (hover to see current wind gust speed)